Private Wetterstation Wechselburg
Wetterdaten: Dienstag, 13.12.2016
Datum Zeit Temp. +2m Bodentemp. Temp.+5cm Temp. Wind Windchill X Diff Temp. Feuchte +2m Feuchte +5cm Sonnenschein Luftdruck Regen Wind Richtung Richtung Sonnenschein Taupunkt Windchill Windben
13.12.2016 00:00 -1,9 C 5,4 C -0,3 C -1,2 C -1,2 C 0,7 C 87 % 77 % 0 % 1027,6 hPa 0,0 l/m 0,2 km/h (0 Bft) S-SW 202 0 min -3,8 C -1,2 C 0,0 km/h (0 Bft)
13.12.2016 00:05 -2,0 C 5,3 C -0,3 C -1,3 C -1,3 C 0,7 C 87 % 77 % 0 % 1027,6 hPa 0,0 l/m 0,0 km/h (0 Bft) W-SW 247 0 min -3,9 C -1,3 C 0,0 km/h (0 Bft)
13.12.2016 00:10 -1,9 C 5,3 C -0,3 C -1,4 C -1,4 C 0,5 C 87 % 77 % 0 % 1027,6 hPa 0,0 l/m 0,0 km/h (0 Bft) W-SW 247 0 min -3,8 C -1,4 C 0,0 km/h (0 Bft)
13.12.2016 00:15 -1,9 C 5,3 C -0,3 C -1,2 C -1,2 C 0,7 C 88 % 77 % 0 % 1027,6 hPa 0,0 l/m 0,0 km/h (0 Bft) O-NO 67 0 min -3,6 C -1,2 C 0,0 km/h (0 Bft)
13.12.2016 00:20 -1,9 C 5,3 C -0,1 C -1,1 C -1,1 C 0,8 C 88 % 77 % 0 % 1027,7 hPa 0,0 l/m 0,0 km/h (0 Bft) O-NO 67 0 min -3,6 C -1,1 C 0,0 km/h (0 Bft)
13.12.2016 00:25 -1,7 C 5,3 C -0,1 C -1,0 C -1,0 C 0,7 C 88 % 77 % 0 % 1027,7 hPa 0,0 l/m 0,0 km/h (0 Bft) O-NO 67 0 min -3,4 C -1,0 C 0,0 km/h (0 Bft)
13.12.2016 00:30 -1,7 C 5,3 C -0,1 C -0,9 C -0,9 C 0,8 C 88 % 77 % 0 % 1027,7 hPa 0,0 l/m 0,0 km/h (0 Bft) O-NO 67 0 min -3,4 C -0,9 C 0,0 km/h (0 Bft)
13.12.2016 00:35 -1,7 C 5,3 C -0,1 C -0,8 C -0,8 C 0,9 C 88 % 77 % 0 % 1027,7 hPa 0,0 l/m 0,0 km/h (0 Bft) O-NO 67 0 min -3,4 C -0,8 C 0,0 km/h (0 Bft)
13.12.2016 00:40 -1,7 C 5,3 C 0,1 C -0,8 C -0,8 C 0,9 C 88 % 77 % 0 % 1027,4 hPa 0,0 l/m 0,0 km/h (0 Bft) O-NO 67 0 min -3,4 C -0,8 C 0,0 km/h (0 Bft)
13.12.2016 00:45 -1,7 C 5,3 C 0,0 C -0,7 C -0,7 C 1,0 C 88 % 78 % 0 % 1027,4 hPa 0,0 l/m 0,0 km/h (0 Bft) O-NO 67 0 min -3,4 C -0,7 C 0,0 km/h (0 Bft)
13.12.2016 00:50 -1,7 C 5,3 C 0,1 C -0,7 C -0,7 C 1,0 C 88 % 78 % 0 % 1027,4 hPa 0,0 l/m 0,0 km/h (0 Bft) O-NO 67 0 min -3,4 C -0,7 C 0,0 km/h (0 Bft)
13.12.2016 00:55 -1,7 C 5,3 C 0,1 C -0,6 C -0,6 C 1,1 C 88 % 78 % 0 % 1027,4 hPa 0,0 l/m 0,0 km/h (0 Bft) O-NO 67 0 min -3,4 C -0,6 C 0,0 km/h (0 Bft)
13.12.2016 01:00 -1,3 C 5,3 C 0,1 C -0,6 C -0,6 C 0,7 C 88 % 78 % 0 % 1027,2 hPa 0,0 l/m 0,0 km/h (0 Bft) O-NO 67 0 min -3,0 C -0,6 C 0,0 km/h (0 Bft)
13.12.2016 01:05 -1,3 C 5,3 C 0,3 C -0,5 C -0,5 C 0,8 C 88 % 78 % 0 % 1027,2 hPa 0,0 l/m 0,0 km/h (0 Bft) O-SO 112 0 min -3,0 C -0,5 C 0,0 km/h (0 Bft)
13.12.2016 01:10 -1,3 C 5,1 C 0,3 C -0,4 C -0,4 C 0,9 C 88 % 78 % 0 % 1027,2 hPa 0,0 l/m 0,2 km/h (0 Bft) W-SW 247 0 min -3,0 C -0,4 C 1,8 km/h (1 Bft)
13.12.2016 01:15 -1,3 C 5,1 C 0,2 C -0,4 C -0,4 C 0,9 C 88 % 78 % 0 % 1027,2 hPa 0,0 l/m 0,5 km/h (0 Bft) W 270 0 min -3,0 C -0,4 C 0,0 km/h (0 Bft)
13.12.2016 01:20 -1,3 C 5,1 C 0,3 C -0,3 C -0,3 C 1,0 C 88 % 78 % 0 % 1027,2 hPa 0,0 l/m 0,3 km/h (0 Bft) W-SW 247 0 min -3,0 C -0,3 C 0,0 km/h (0 Bft)
13.12.2016 01:25 -1,3 C 5,1 C 0,3 C -0,4 C -0,4 C 0,9 C 88 % 78 % 0 % 1027,2 hPa 0,0 l/m 0,3 km/h (0 Bft) W-SW 247 0 min -3,0 C -0,4 C 1,8 km/h (1 Bft)
13.12.2016 01:30 -1,3 C 5,1 C 0,3 C -0,4 C -0,4 C 0,9 C 88 % 78 % 0 % 1027,2 hPa 0,0 l/m 0,3 km/h (0 Bft) NW 315 0 min -3,0 C -0,4 C 0,0 km/h (0 Bft)
13.12.2016 01:35 -1,3 C 5,1 C 0,4 C -0,3 C -0,3 C 1,0 C 88 % 78 % 0 % 1027,2 hPa 0,0 l/m 0,0 km/h (0 Bft) NW 315 0 min -3,0 C -0,3 C 0,0 km/h (0 Bft)
13.12.2016 01:40 -1,3 C 5,1 C 0,4 C -0,3 C -0,3 C 1,0 C 88 % 78 % 0 % 1027,6 hPa 0,0 l/m 0,0 km/h (0 Bft) NW 315 0 min -3,0 C -0,3 C 0,0 km/h (0 Bft)
13.12.2016 01:45 -1,3 C 5,1 C 0,4 C -0,2 C -0,2 C 1,1 C 88 % 78 % 0 % 1027,6 hPa 0,0 l/m 0,0 km/h (0 Bft) NW 315 0 min -3,0 C -0,2 C 0,0 km/h (0 Bft)
13.12.2016 01:50 -1,3 C 5,1 C 0,4 C -0,2 C -0,2 C 1,1 C 88 % 78 % 0 % 1027,6 hPa 0,0 l/m 0,0 km/h (0 Bft) NW 315 0 min -3,0 C -0,2 C 0,0 km/h (0 Bft)
13.12.2016 01:55 -1,3 C 5,1 C 0,5 C -0,1 C -0,1 C 1,2 C 88 % 78 % 0 % 1027,6 hPa 0,0 l/m 0,0 km/h (0 Bft) NW 315 0 min -3,0 C -0,1 C 0,0 km/h (0 Bft)
13.12.2016 02:00 -1,1 C 5,1 C 0,5 C -0,1 C -0,1 C 1,0 C 89 % 78 % 0 % 1027,4 hPa 0,0 l/m 0,2 km/h (0 Bft) W 270 0 min -2,7 C -0,1 C 0,0 km/h (0 Bft)
13.12.2016 02:05 -1,1 C 5,1 C 0,7 C 0,0 C 0,0 C 1,1 C 88 % 78 % 0 % 1027,4 hPa 0,0 l/m 0,2 km/h (0 Bft) W 270 0 min -2,8 C 0,0 C 0,0 km/h (0 Bft)
13.12.2016 02:10 -1,1 C 5,1 C 0,7 C 0,0 C 0,0 C 1,1 C 89 % 78 % 0 % 1027,4 hPa 0,0 l/m 0,0 km/h (0 Bft) W-SW 247 0 min -2,7 C 0,0 C 0,0 km/h (0 Bft)
13.12.2016 02:15 -1,1 C 5,1 C 0,7 C 0,0 C 0,0 C 1,1 C 89 % 78 % 0 % 1027,4 hPa 0,0 l/m 0,0 km/h (0 Bft) SW 225 0 min -2,7 C 0,0 C 0,0 km/h (0 Bft)
13.12.2016 02:20 -0,9 C 5,0 C 0,7 C 0,0 C 0,0 C 0,9 C 89 % 78 % 0 % 1027,3 hPa 0,0 l/m 0,0 km/h (0 Bft) SW 225 0 min -2,5 C 0,0 C 0,0 km/h (0 Bft)
13.12.2016 02:25 -0,9 C 5,0 C 0,7 C 0,0 C 0,0 C 0,9 C 89 % 78 % 0 % 1027,3 hPa 0,0 l/m 0,0 km/h (0 Bft) SW 225 0 min -2,5 C 0,0 C 0,0 km/h (0 Bft)
13.12.2016 02:30 -1,0 C 5,0 C 0,6 C 0,1 C 0,1 C 1,1 C 88 % 78 % 0 % 1027,3 hPa 0,0 l/m 0,3 km/h (0 Bft) W-SW 247 0 min -2,7 C 0,1 C 2,7 km/h (1 Bft)
13.12.2016 02:35 -1,0 C 5,0 C 0,6 C 0,1 C 0,1 C 1,1 C 89 % 78 % 0 % 1027,3 hPa 0,0 l/m 0,3 km/h (0 Bft) W-SW 247 0 min -2,6 C 0,1 C 0,0 km/h (0 Bft)
13.12.2016 02:40 -0,9 C 5,0 C 0,7 C 0,1 C 0,1 C 1,0 C 89 % 78 % 0 % 1027,4 hPa 0,0 l/m 0,2 km/h (0 Bft) W-SW 247 0 min -2,5 C 0,1 C 0,0 km/h (0 Bft)
13.12.2016 02:45 -0,9 C 5,0 C 0,7 C 0,1 C 0,1 C 1,0 C 89 % 78 % 0 % 1027,4 hPa 0,0 l/m 0,0 km/h (0 Bft) W-SW 247 0 min -2,5 C 0,1 C 0,0 km/h (0 Bft)
13.12.2016 02:50 -0,9 C 5,0 C 0,7 C 0,1 C 0,1 C 1,0 C 89 % 78 % 0 % 1027,4 hPa 0,0 l/m 0,0 km/h (0 Bft) W-SW 247 0 min -2,5 C 0,1 C 0,0 km/h (0 Bft)
13.12.2016 02:55 -0,9 C 5,0 C 0,8 C 0,1 C 0,1 C 1,0 C 89 % 78 % 0 % 1027,4 hPa 0,0 l/m 0,0 km/h (0 Bft) O 90 0 min -2,5 C 0,1 C 0,0 km/h (0 Bft)
13.12.2016 03:00 -0,9 C 5,0 C 0,7 C 0,2 C 0,2 C 1,1 C 89 % 78 % 0 % 1027,2 hPa 0,0 l/m 0,0 km/h (0 Bft) O 90 0 min -2,5 C 0,2 C 0,0 km/h (0 Bft)
13.12.2016 03:05 -0,9 C 5,0 C 0,8 C 0,2 C 0,2 C 1,1 C 89 % 78 % 0 % 1027,2 hPa 0,0 l/m 0,0 km/h (0 Bft) O 90 0 min -2,5 C 0,2 C 0,0 km/h (0 Bft)
13.12.2016 03:10 -0,9 C 5,0 C 0,8 C 0,2 C 0,2 C 1,1 C 89 % 78 % 0 % 1027,2 hPa 0,0 l/m 0,0 km/h (0 Bft) O 90 0 min -2,5 C 0,2 C 0,0 km/h (0 Bft)
13.12.2016 03:15 -0,8 C 5,0 C 0,9 C 0,3 C 0,3 C 1,1 C 89 % 78 % 0 % 1027,2 hPa 0,0 l/m 0,0 km/h (0 Bft) W-NW 292 0 min -2,4 C 0,3 C 0,0 km/h (0 Bft)
13.12.2016 03:20 -0,8 C 5,0 C 0,8 C 0,4 C 0,4 C 1,2 C 89 % 78 % 0 % 1027,1 hPa 0,0 l/m 0,0 km/h (0 Bft) O 90 0 min -2,4 C 0,4 C 0,0 km/h (0 Bft)
13.12.2016 03:25 -0,7 C 5,0 C 0,8 C 0,4 C 0,4 C 1,1 C 89 % 78 % 0 % 1027,1 hPa 0,0 l/m 0,0 km/h (0 Bft) W 270 0 min -2,3 C 0,4 C 0,0 km/h (0 Bft)
13.12.2016 03:30 -0,7 C 5,0 C 0,9 C 0,5 C 0,5 C 1,2 C 89 % 78 % 0 % 1027,1 hPa 0,0 l/m 0,2 km/h (0 Bft) W-SW 247 0 min -2,3 C 0,5 C 0,0 km/h (0 Bft)
13.12.2016 03:35 -0,7 C 5,0 C 0,9 C 0,5 C 0,5 C 1,2 C 89 % 78 % 0 % 1027,1 hPa 0,0 l/m 0,2 km/h (0 Bft) W-SW 247 0 min -2,3 C 0,5 C 0,0 km/h (0 Bft)
13.12.2016 03:40 -0,7 C 5,0 C 0,9 C 0,5 C 0,5 C 1,2 C 89 % 78 % 0 % 1027,0 hPa 0,0 l/m 0,0 km/h (0 Bft) W-SW 247 0 min -2,3 C 0,5 C 0,0 km/h (0 Bft)
13.12.2016 03:45 -0,7 C 5,0 C 0,9 C 0,5 C 0,5 C 1,2 C 89 % 78 % 0 % 1027,0 hPa 0,0 l/m 0,0 km/h (0 Bft) SW 225 0 min -2,3 C 0,5 C 0,0 km/h (0 Bft)
13.12.2016 03:50 -0,7 C 5,0 C 0,9 C 0,5 C 0,5 C 1,2 C 89 % 78 % 0 % 1027,0 hPa 0,0 l/m 0,0 km/h (0 Bft) SW 225 0 min -2,3 C 0,5 C 0,0 km/h (0 Bft)
13.12.2016 03:55 -0,5 C 5,0 C 0,9 C 0,5 C 0,5 C 1,0 C 89 % 78 % 0 % 1027,0 hPa 0,0 l/m 0,0 km/h (0 Bft) SW 225 0 min -2,1 C 0,5 C 0,0 km/h (0 Bft)
13.12.2016 04:00 -0,5 C 4,9 C 1,1 C 0,5 C 0,5 C 1,0 C 89 % 78 % 0 % 1026,6 hPa 0,0 l/m 0,0 km/h (0 Bft) SW 225 0 min -2,1 C 0,5 C 0,0 km/h (0 Bft)
13.12.2016 04:05 -0,5 C 4,9 C 1,0 C 0,6 C 0,6 C 1,1 C 89 % 78 % 0 % 1026,6 hPa 0,0 l/m 0,2 km/h (0 Bft) NO 45 0 min -2,1 C 0,6 C 0,0 km/h (0 Bft)
13.12.2016 04:10 -0,5 C 4,9 C 1,1 C 0,6 C 0,6 C 1,1 C 89 % 78 % 0 % 1026,6 hPa 0,0 l/m 0,2 km/h (0 Bft) NO 45 0 min -2,1 C 0,6 C 0,0 km/h (0 Bft)
13.12.2016 04:15 -0,5 C 4,9 C 1,0 C 0,6 C 0,6 C 1,1 C 89 % 78 % 0 % 1026,6 hPa 0,0 l/m 0,0 km/h (0 Bft) O-NO 67 0 min -2,1 C 0,6 C 0,0 km/h (0 Bft)
13.12.2016 04:20 -0,5 C 4,9 C 1,0 C 0,6 C 0,6 C 1,1 C 89 % 78 % 0 % 1026,5 hPa 0,0 l/m 0,0 km/h (0 Bft) O-NO 67 0 min -2,1 C 0,6 C 0,0 km/h (0 Bft)
13.12.2016 04:25 -0,5 C 4,9 C 1,0 C 0,6 C 0,6 C 1,1 C 89 % 78 % 0 % 1026,5 hPa 0,0 l/m 0,0 km/h (0 Bft) N-NO 22 0 min -2,1 C 0,6 C 0,0 km/h (0 Bft)
13.12.2016 04:30 -0,5 C 4,9 C 1,1 C 0,6 C 0,6 C 1,1 C 89 % 78 % 0 % 1026,5 hPa 0,0 l/m 0,0 km/h (0 Bft) W 270 0 min -2,1 C 0,6 C 0,0 km/h (0 Bft)
13.12.2016 04:35 -0,5 C 4,9 C 1,1 C 0,6 C 0,6 C 1,1 C 89 % 78 % 0 % 1026,5 hPa 0,0 l/m 0,0 km/h (0 Bft) W 270 0 min -2,1 C 0,6 C 0,0 km/h (0 Bft)
13.12.2016 04:40 -0,5 C 4,9 C 1,1 C 0,7 C 0,7 C 1,2 C 89 % 78 % 0 % 1026,6 hPa 0,0 l/m 0,0 km/h (0 Bft) W 270 0 min -2,1 C 0,7 C 0,0 km/h (0 Bft)
13.12.2016 04:45 -0,4 C 4,9 C 1,1 C 0,7 C 0,7 C 1,1 C 89 % 78 % 0 % 1026,6 hPa 0,0 l/m 0,0 km/h (0 Bft) O 90 0 min -2,0 C 0,7 C 0,0 km/h (0 Bft)
13.12.2016 04:50 -0,3 C 4,9 C 1,1 C 0,8 C 0,8 C 1,1 C 89 % 78 % 0 % 1026,6 hPa 0,0 l/m 0,0 km/h (0 Bft) NW 315 0 min -1,9 C 0,8 C 0,0 km/h (0 Bft)
13.12.2016 04:55 -0,1 C 4,9 C 1,1 C 0,8 C 0,8 C 0,9 C 89 % 78 % 0 % 1026,6 hPa 0,0 l/m 0,2 km/h (0 Bft) W-NW 292 0 min -1,7 C 0,8 C 1,9 km/h (1 Bft)
13.12.2016 05:00 -0,2 C 4,9 C 1,1 C 0,7 C 0,7 C 0,9 C 89 % 78 % 0 % 1026,4 hPa 0,0 l/m 0,2 km/h (0 Bft) N-NO 22 0 min -1,8 C 0,7 C 0,0 km/h (0 Bft)
13.12.2016 05:05 -0,2 C 4,9 C 1,0 C 0,7 C 0,7 C 0,9 C 89 % 78 % 0 % 1026,4 hPa 0,0 l/m 0,2 km/h (0 Bft) W-NW 292 0 min -1,8 C 0,7 C 0,0 km/h (0 Bft)
13.12.2016 05:10 -0,1 C 4,9 C 1,0 C 0,6 C 0,6 C 0,7 C 89 % 78 % 0 % 1026,4 hPa 0,0 l/m 0,0 km/h (0 Bft) W-NW 292 0 min -1,7 C 0,6 C 0,0 km/h (0 Bft)
13.12.2016 05:15 -0,1 C 4,9 C 1,1 C 0,6 C 0,6 C 0,7 C 89 % 78 % 0 % 1026,4 hPa 0,0 l/m 0,0 km/h (0 Bft) W-NW 292 0 min -1,7 C 0,6 C 0,0 km/h (0 Bft)
13.12.2016 05:20 -0,1 C 4,9 C 1,1 C 0,6 C 0,6 C 0,7 C 89 % 78 % 0 % 1026,5 hPa 0,0 l/m 0,0 km/h (0 Bft) W 270 0 min -1,7 C 0,6 C 0,0 km/h (0 Bft)
13.12.2016 05:25 -0,1 C 4,9 C 1,1 C 0,7 C 0,7 C 0,8 C 89 % 78 % 0 % 1026,5 hPa 0,0 l/m 0,0 km/h (0 Bft) W 270 0 min -1,7 C 0,7 C 0,0 km/h (0 Bft)
13.12.2016 05:30 -0,1 C 4,9 C 1,1 C 0,8 C 0,8 C 0,9 C 89 % 78 % 0 % 1026,5 hPa 0,0 l/m 0,0 km/h (0 Bft) W 270 0 min -1,7 C 0,8 C 0,0 km/h (0 Bft)
13.12.2016 05:35 -0,1 C 4,9 C 1,2 C 0,9 C 0,9 C 1,0 C 89 % 78 % 0 % 1026,5 hPa 0,0 l/m 0,0 km/h (0 Bft) W 270 0 min -1,7 C 0,9 C 0,0 km/h (0 Bft)
13.12.2016 05:40 -0,1 C 4,9 C 1,2 C 1,0 C 1,0 C 1,1 C 89 % 78 % 0 % 1026,5 hPa 0,0 l/m 0,0 km/h (0 Bft) W 270 0 min -1,7 C 1,0 C 0,0 km/h (0 Bft)
13.12.2016 05:45 -0,1 C 4,9 C 1,2 C 1,1 C 1,1 C 1,2 C 89 % 78 % 0 % 1026,5 hPa 0,0 l/m 0,0 km/h (0 Bft) W 270 0 min -1,7 C 1,1 C 0,0 km/h (0 Bft)
13.12.2016 05:50 -0,1 C 4,9 C 1,2 C 1,1 C 1,1 C 1,2 C 89 % 78 % 0 % 1026,5 hPa 0,0 l/m 0,0 km/h (0 Bft) W 270 0 min -1,7 C 1,1 C 0,0 km/h (0 Bft)
13.12.2016 05:55 0,1 C 4,9 C 1,2 C 1,1 C 1,1 C 1,0 C 89 % 78 % 0 % 1026,5 hPa 0,0 l/m 0,0 km/h (0 Bft) W 270 0 min -1,5 C 1,1 C 0,0 km/h (0 Bft)
13.12.2016 06:00 0,0 C 4,9 C 1,2 C 1,1 C 1,1 C 1,1 C 89 % 78 % 0 % 1026,5 hPa 0,0 l/m 0,0 km/h (0 Bft) W 270 0 min -1,6 C 1,1 C 0,0 km/h (0 Bft)
13.12.2016 06:05 0,1 C 4,9 C 1,3 C 1,1 C 1,1 C 1,0 C 89 % 78 % 0 % 1026,5 hPa 0,0 l/m 0,0 km/h (0 Bft) W 270 0 min -1,5 C 1,1 C 0,0 km/h (0 Bft)
13.12.2016 06:10 0,1 C 4,9 C 1,3 C 1,1 C 1,1 C 1,0 C 89 % 78 % 0 % 1026,5 hPa 0,0 l/m 0,0 km/h (0 Bft) W 270 0 min -1,5 C 1,1 C 0,0 km/h (0 Bft)
13.12.2016 06:15 0,1 C 4,9 C 1,3 C 1,1 C 1,1 C 1,0 C 89 % 78 % 0 % 1026,5 hPa 0,0 l/m 0,0 km/h (0 Bft) W 270 0 min -1,5 C 1,1 C 0,0 km/h (0 Bft)
13.12.2016 06:20 0,1 C 4,9 C 1,2 C 1,1 C 1,1 C 1,0 C 89 % 78 % 0 % 1026,8 hPa 0,0 l/m 0,0 km/h (0 Bft) W 270 0 min -1,5 C 1,1 C 0,0 km/h (0 Bft)
13.12.2016 06:25 0,1 C 4,9 C 1,1 C 0,9 C 0,9 C 0,8 C 89 % 78 % 0 % 1026,8 hPa 0,0 l/m 0,0 km/h (0 Bft) W 270 0 min -1,5 C 0,9 C 0,0 km/h (0 Bft)
13.12.2016 06:30 0,1 C 4,9 C 1,1 C 0,8 C 0,8 C 0,7 C 89 % 78 % 0 % 1026,8 hPa 0,0 l/m 0,0 km/h (0 Bft) O 90 0 min -1,5 C 0,8 C 0,0 km/h (0 Bft)
13.12.2016 06:35 0,1 C 4,9 C 0,9 C 0,7 C 0,7 C 0,6 C 89 % 78 % 0 % 1026,8 hPa 0,0 l/m 0,0 km/h (0 Bft) O 90 0 min -1,5 C 0,7 C 0,0 km/h (0 Bft)
13.12.2016 06:40 0,1 C 4,8 C 0,8 C 0,6 C 0,6 C 0,5 C 89 % 78 % 0 % 1026,1 hPa 0,0 l/m 0,0 km/h (0 Bft) O 90 0 min -1,5 C 0,6 C 0,0 km/h (0 Bft)
13.12.2016 06:45 -0,1 C 4,8 C 0,7 C 0,3 C 0,3 C 0,4 C 89 % 78 % 0 % 1026,1 hPa 0,0 l/m 0,0 km/h (0 Bft) O 90 0 min -1,7 C 0,3 C 0,0 km/h (0 Bft)
13.12.2016 06:50 -0,1 C 4,8 C 0,7 C 0,2 C 0,2 C 0,3 C 89 % 78 % 0 % 1026,1 hPa 0,0 l/m 0,0 km/h (0 Bft) O 90 0 min -1,7 C 0,2 C 0,0 km/h (0 Bft)
13.12.2016 06:55 -0,1 C 4,8 C 0,6 C 0,2 C 0,2 C 0,3 C 89 % 78 % 0 % 1026,1 hPa 0,0 l/m 0,0 km/h (0 Bft) W-SW 247 0 min -1,7 C 0,2 C 0,0 km/h (0 Bft)
13.12.2016 07:00 -0,1 C 4,8 C 0,6 C 0,3 C 0,3 C 0,4 C 89 % 78 % 0 % 1026,6 hPa 0,0 l/m 0,0 km/h (0 Bft) W-SW 247 0 min -1,7 C 0,3 C 0,0 km/h (0 Bft)
13.12.2016 07:05 -0,2 C 4,8 C 0,7 C 0,2 C 0,2 C 0,4 C 89 % 78 % 0 % 1026,6 hPa 0,0 l/m 0,0 km/h (0 Bft) W-SW 247 0 min -1,8 C 0,2 C 0,0 km/h (0 Bft)
13.12.2016 07:10 -0,1 C 4,8 C 0,5 C 0,0 C 0,0 C 0,1 C 89 % 78 % 0 % 1026,6 hPa 0,0 l/m 0,0 km/h (0 Bft) W-SW 247 0 min -1,7 C 0,0 C 0,0 km/h (0 Bft)
13.12.2016 07:15 -0,3 C 4,8 C 0,4 C -0,1 C -0,1 C 0,2 C 89 % 78 % 0 % 1026,6 hPa 0,0 l/m 0,0 km/h (0 Bft) W-SW 247 0 min -1,9 C -0,1 C 0,0 km/h (0 Bft)
13.12.2016 07:20 -0,4 C 4,8 C 0,5 C -0,1 C -0,1 C 0,3 C 89 % 78 % 0 % 1026,6 hPa 0,0 l/m 0,0 km/h (0 Bft) W-SW 247 0 min -2,0 C -0,1 C 0,0 km/h (0 Bft)
13.12.2016 07:25 -0,5 C 4,8 C 0,5 C 0,2 C 0,2 C 0,7 C 89 % 78 % 0 % 1026,6 hPa 0,0 l/m 0,0 km/h (0 Bft) W-SW 247 0 min -2,1 C 0,2 C 0,0 km/h (0 Bft)
13.12.2016 07:30 -0,5 C 4,8 C 0,7 C 0,3 C 0,3 C 0,8 C 89 % 78 % 0 % 1026,6 hPa 0,0 l/m 0,0 km/h (0 Bft) W-SW 247 0 min -2,1 C 0,3 C 0,0 km/h (0 Bft)
13.12.2016 07:35 -0,4 C 4,8 C 0,7 C 0,4 C 0,4 C 0,8 C 89 % 78 % 0 % 1026,6 hPa 0,0 l/m 0,0 km/h (0 Bft) W-SW 247 0 min -2,0 C 0,4 C 0,0 km/h (0 Bft)
13.12.2016 07:40 -0,4 C 4,8 C 0,8 C 0,5 C 0,5 C 0,9 C 89 % 79 % 0 % 1026,2 hPa 0,0 l/m 0,0 km/h (0 Bft) W-SW 247 0 min -2,0 C 0,5 C 0,0 km/h (0 Bft)
13.12.2016 07:45 -0,3 C 4,8 C 0,8 C 0,7 C 0,7 C 1,0 C 89 % 78 % 0 % 1026,2 hPa 0,0 l/m 0,0 km/h (0 Bft) O 90 0 min -1,9 C 0,7 C 0,0 km/h (0 Bft)
13.12.2016 07:50 -0,3 C 4,8 C 0,8 C 0,8 C 0,8 C 1,1 C 89 % 78 % 0 % 1026,2 hPa 0,0 l/m 0,0 km/h (0 Bft) SO 135 0 min -1,9 C 0,8 C 0,0 km/h (0 Bft)
13.12.2016 07:55 -0,1 C 4,8 C 0,9 C 0,9 C 0,9 C 1,0 C 89 % 78 % 0 % 1026,2 hPa 0,0 l/m 0,0 km/h (0 Bft) O 90 0 min -1,7 C 0,9 C 0,0 km/h (0 Bft)
13.12.2016 08:00 -0,1 C 4,8 C 1,0 C 1,0 C 1,0 C 1,1 C 89 % 79 % 0 % 1026,5 hPa 0,0 l/m 0,0 km/h (0 Bft) W 270 0 min -1,7 C 1,0 C 0,0 km/h (0 Bft)
13.12.2016 08:05 -0,1 C 4,8 C 1,0 C 1,1 C 1,1 C 1,2 C 89 % 79 % 0 % 1026,5 hPa 0,0 l/m 0,0 km/h (0 Bft) W 270 0 min -1,7 C 1,1 C 0,0 km/h (0 Bft)
13.12.2016 08:10 0,1 C 4,8 C 1,0 C 1,1 C 1,1 C 1,0 C 89 % 79 % 0 % 1026,5 hPa 0,0 l/m 0,0 km/h (0 Bft) W-SW 247 0 min -1,5 C 1,1 C 0,0 km/h (0 Bft)
13.12.2016 08:15 0,1 C 4,8 C 1,1 C 1,1 C 1,1 C 1,0 C 89 % 79 % 0 % 1026,5 hPa 0,0 l/m 0,0 km/h (0 Bft) W-SW 247 0 min -1,5 C 1,1 C 0,0 km/h (0 Bft)
13.12.2016 08:20 0,0 C 4,8 C 1,2 C 1,1 C 1,1 C 1,1 C 89 % 79 % 29 % 1026,6 hPa 0,0 l/m 0,0 km/h (0 Bft) W-SW 247 5 min -1,6 C 1,1 C 0,0 km/h (0 Bft)
13.12.2016 08:25 0,1 C 4,8 C 1,2 C 1,2 C 1,2 C 1,1 C 89 % 79 % 29 % 1026,6 hPa 0,0 l/m 0,0 km/h (0 Bft) W-SW 247 5 min -1,5 C 1,2 C 0,0 km/h (0 Bft)
13.12.2016 08:30 0,1 C 4,8 C 1,3 C 1,3 C 1,3 C 1,2 C 89 % 79 % 32 % 1026,6 hPa 0,0 l/m 0,0 km/h (0 Bft) W-SW 247 5 min -1,5 C 1,3 C 0,0 km/h (0 Bft)
13.12.2016 08:35 0,2 C 4,8 C 1,4 C 1,5 C 1,5 C 1,3 C 89 % 79 % 34 % 1026,6 hPa 0,0 l/m 0,0 km/h (0 Bft) W 270 5 min -1,4 C 1,5 C 0,0 km/h (0 Bft)
13.12.2016 08:40 0,3 C 4,8 C 1,5 C 1,6 C 1,6 C 1,3 C 89 % 79 % 34 % 1027,3 hPa 0,0 l/m 0,0 km/h (0 Bft) N-NO 22 5 min -1,3 C 1,6 C 0,0 km/h (0 Bft)
13.12.2016 08:45 0,4 C 4,8 C 1,6 C 1,8 C 1,8 C 1,4 C 89 % 79 % 37 % 1027,3 hPa 0,0 l/m 0,0 km/h (0 Bft) O 90 5 min -1,2 C 1,8 C 0,0 km/h (0 Bft)
13.12.2016 08:50 0,7 C 4,8 C 1,6 C 1,9 C 1,9 C 1,2 C 89 % 79 % 32 % 1027,3 hPa 0,0 l/m 0,0 km/h (0 Bft) O-NO 67 5 min -0,9 C 1,9 C 0,0 km/h (0 Bft)
13.12.2016 08:55 0,7 C 4,8 C 1,7 C 2,1 C 2,1 C 1,4 C 89 % 79 % 37 % 1027,3 hPa 0,0 l/m 0,0 km/h (0 Bft) N 360 5 min -0,9 C 2,1 C 0,0 km/h (0 Bft)
13.12.2016 09:00 0,8 C 4,8 C 1,7 C 2,2 C 2,2 C 1,4 C 89 % 79 % 37 % 1026,8 hPa 0,0 l/m 0,0 km/h (0 Bft) O 90 5 min -0,8 C 2,2 C 0,0 km/h (0 Bft)
13.12.2016 09:05 0,8 C 4,8 C 2,0 C 2,4 C 2,4 C 1,6 C 89 % 79 % 42 % 1026,8 hPa 0,0 l/m 0,0 km/h (0 Bft) O 90 5 min -0,8 C 2,4 C 0,0 km/h (0 Bft)
13.12.2016 09:10 1,0 C 4,8 C 2,0 C 2,5 C 2,5 C 1,5 C 90 % 79 % 39 % 1026,8 hPa 0,0 l/m 0,0 km/h (0 Bft) O-SO 112 5 min -0,5 C 2,5 C 0,0 km/h (0 Bft)
13.12.2016 09:15 1,1 C 4,7 C 2,3 C 2,8 C 2,8 C 1,7 C 90 % 80 % 45 % 1026,8 hPa 0,0 l/m 0,0 km/h (0 Bft) SW 225 0 min -0,4 C 2,8 C 0,0 km/h (0 Bft)
13.12.2016 09:20 1,2 C 4,7 C 2,3 C 2,8 C 2,8 C 1,6 C 90 % 79 % 42 % 1026,6 hPa 0,0 l/m 0,0 km/h (0 Bft) W-SW 247 0 min -0,3 C 2,8 C 0,0 km/h (0 Bft)
13.12.2016 09:25 1,2 C 4,7 C 2,3 C 2,8 C 2,8 C 1,6 C 90 % 79 % 42 % 1026,6 hPa 0,0 l/m 0,0 km/h (0 Bft) W-SW 247 0 min -0,3 C 2,8 C 0,0 km/h (0 Bft)
13.12.2016 09:30 1,2 C 4,7 C 2,3 C 2,8 C 2,8 C 1,6 C 90 % 78 % 42 % 1026,6 hPa 0,0 l/m 0,0 km/h (0 Bft) W-SW 247 0 min -0,3 C 2,8 C 0,0 km/h (0 Bft)
13.12.2016 09:35 1,3 C 4,7 C 2,4 C 2,9 C 2,9 C 1,6 C 90 % 79 % 42 % 1026,6 hPa 0,0 l/m 0,0 km/h (0 Bft) W-SW 247 0 min -0,2 C 2,9 C 0,0 km/h (0 Bft)
13.12.2016 09:40 1,5 C 4,7 C 2,5 C 3,1 C 3,1 C 1,6 C 90 % 79 % 42 % 1026,7 hPa 0,0 l/m 0,0 km/h (0 Bft) S 180 0 min 0,0 C 3,1 C 0,0 km/h (0 Bft)
13.12.2016 09:45 1,6 C 4,7 C 2,8 C 3,3 C 3,3 C 1,7 C 90 % 79 % 45 % 1026,7 hPa 0,0 l/m 0,0 km/h (0 Bft) S 180 0 min 0,1 C 3,3 C 0,0 km/h (0 Bft)
13.12.2016 09:50 1,7 C 4,7 C 2,8 C 3,4 C 3,4 C 1,7 C 90 % 79 % 45 % 1026,7 hPa 0,0 l/m 0,0 km/h (0 Bft) SO 135 0 min 0,2 C 3,4 C 0,0 km/h (0 Bft)
13.12.2016 09:55 1,9 C 4,7 C 3,1 C 3,5 C 3,5 C 1,6 C 90 % 79 % 42 % 1026,7 hPa 0,0 l/m 0,0 km/h (0 Bft) SO 135 0 min 0,4 C 3,5 C 0,0 km/h (0 Bft)
13.12.2016 10:00 1,9 C 4,7 C 3,2 C 3,8 C 3,8 C 1,9 C 90 % 79 % 50 % 1026,9 hPa 0,0 l/m 0,0 km/h (0 Bft) N-NO 22 0 min 0,4 C 3,8 C 0,0 km/h (0 Bft)
13.12.2016 10:10 2,2 C 4,7 C 3,5 C 4,0 C 4,0 C 1,8 C 90 % 79 % 47 % 1026,9 hPa 0,0 l/m 0,0 km/h (0 Bft) O-SO 112 0 min 0,7 C 4,0 C 0,0 km/h (0 Bft)
13.12.2016 10:15 2,4 C 4,7 C 3,6 C 4,3 C 4,3 C 1,9 C 90 % 79 % 50 % 1026,9 hPa 0,0 l/m 0,0 km/h (0 Bft) O-NO 67 0 min 0,9 C 4,3 C 0,0 km/h (0 Bft)
13.12.2016 10:20 2,4 C 4,7 C 3,7 C 4,5 C 4,5 C 2,1 C 90 % 79 % 55 % 1026,9 hPa 0,0 l/m 0,0 km/h (0 Bft) N-NO 22 0 min 0,9 C 4,5 C 0,0 km/h (0 Bft)
13.12.2016 10:25 2,7 C 4,7 C 3,8 C 4,6 C 4,6 C 1,9 C 90 % 79 % 50 % 1026,9 hPa 0,0 l/m 0,0 km/h (0 Bft) N-NO 22 0 min 1,2 C 4,6 C 0,0 km/h (0 Bft)
13.12.2016 10:30 2,7 C 4,8 C 3,9 C 4,6 C 4,6 C 1,9 C 90 % 79 % 50 % 1026,9 hPa 0,0 l/m 0,0 km/h (0 Bft) S 180 0 min 1,2 C 4,6 C 0,0 km/h (0 Bft)
13.12.2016 10:35 2,8 C 4,8 C 4,0 C 4,7 C 4,7 C 1,9 C 90 % 79 % 50 % 1026,9 hPa 0,0 l/m 0,0 km/h (0 Bft) O-NO 67 0 min 1,3 C 4,7 C 0,0 km/h (0 Bft)
13.12.2016 10:40 2,8 C 4,8 C 4,0 C 4,8 C 4,8 C 2,0 C 90 % 79 % 53 % 1026,4 hPa 0,0 l/m 0,2 km/h (0 Bft) S 180 0 min 1,3 C 4,8 C 0,0 km/h (0 Bft)
13.12.2016 10:45 2,9 C 4,8 C 4,1 C 4,8 C 4,8 C 1,9 C 90 % 78 % 50 % 1026,4 hPa 0,0 l/m 0,3 km/h (0 Bft) S 180 0 min 1,4 C 4,8 C 1,6 km/h (1 Bft)
13.12.2016 10:50 2,9 C 4,8 C 4,2 C 5,0 C 5,0 C 2,1 C 90 % 78 % 55 % 1026,4 hPa 0,0 l/m 0,3 km/h (0 Bft) S 180 0 min 1,4 C 5,0 C 0,0 km/h (0 Bft)
13.12.2016 10:55 3,0 C 4,8 C 4,3 C 5,0 C 5,0 C 2,0 C 90 % 78 % 53 % 1026,4 hPa 0,0 l/m 0,6 km/h (0 Bft) S 180 0 min 1,5 C 5,0 C 4,3 km/h (1 Bft)
13.12.2016 11:00 3,1 C 4,8 C 4,4 C 5,1 C 5,1 C 2,0 C 90 % 78 % 53 % 1026,8 hPa 0,0 l/m 1,0 km/h (0 Bft) W-SW 247 0 min 1,6 C 5,1 C 0,0 km/h (0 Bft)
13.12.2016 11:05 3,2 C 4,8 C 4,4 C 5,2 C 5,2 C 2,0 C 90 % 78 % 53 % 1026,8 hPa 0,0 l/m 2,1 km/h (1 Bft) S-SO 157 0 min 1,7 C 5,2 C 5,3 km/h (1 Bft)
13.12.2016 11:10 3,3 C 4,8 C 4,4 C 5,2 C 5,2 C 1,9 C 90 % 78 % 50 % 1026,8 hPa 0,0 l/m 2,4 km/h (1 Bft) SO 135 0 min 1,8 C 5,2 C 5,1 km/h (1 Bft)
13.12.2016 11:15 3,2 C 4,8 C 4,5 C 5,2 C 5,2 C 2,0 C 90 % 78 % 53 % 1026,8 hPa 0,0 l/m 2,9 km/h (1 Bft) N-NO 22 0 min 1,7 C 5,2 C 6,4 km/h (2 Bft)
13.12.2016 11:20 3,2 C 4,8 C 4,7 C 5,3 C 5,3 C 2,1 C 90 % 78 % 55 % 1026,2 hPa 0,0 l/m 3,1 km/h (1 Bft) S 180 0 min 1,7 C 5,3 C 3,4 km/h (1 Bft)
13.12.2016 11:25 3,3 C 4,8 C 4,7 C 5,4 C 5,4 C 2,1 C 90 % 77 % 55 % 1026,2 hPa 0,0 l/m 2,3 km/h (1 Bft) SO 135 0 min 1,8 C 5,4 C 2,4 km/h (1 Bft)
13.12.2016 11:30 3,5 C 4,8 C 4,8 C 5,5 C 5,5 C 2,0 C 90 % 77 % 53 % 1026,2 hPa 0,0 l/m 2,1 km/h (1 Bft) S 180 0 min 2,0 C 5,5 C 7,6 km/h (2 Bft)
13.12.2016 11:35 3,4 C 4,8 C 4,8 C 5,5 C 5,5 C 2,1 C 90 % 77 % 55 % 1026,2 hPa 0,0 l/m 3,4 km/h (1 Bft) S-SO 157 0 min 1,9 C 5,5 C 9,3 km/h (2 Bft)
13.12.2016 11:40 3,5 C 4,8 C 4,9 C 5,4 C 5,4 C 1,9 C 90 % 77 % 50 % 1026,6 hPa 0,0 l/m 3,7 km/h (1 Bft) N 360 0 min 2,0 C 5,4 C 1,8 km/h (1 Bft)
13.12.2016 11:45 3,6 C 4,8 C 5,1 C 5,8 C 5,8 C 2,2 C 90 % 77 % 58 % 1026,6 hPa 0,0 l/m 1,9 km/h (1 Bft) S 180 0 min 2,1 C 5,8 C 2,9 km/h (1 Bft)
13.12.2016 11:50 3,6 C 4,8 C 5,1 C 5,9 C 5,9 C 2,3 C 90 % 77 % 61 % 1026,6 hPa 0,0 l/m 1,6 km/h (1 Bft) NW 315 0 min 2,1 C 5,9 C 0,0 km/h (0 Bft)
13.12.2016 11:55 3,7 C 4,8 C 5,3 C 6,0 C 6,0 C 2,3 C 90 % 77 % 61 % 1026,6 hPa 0,0 l/m 1,6 km/h (1 Bft) W-SW 247 0 min 2,2 C 6,0 C 7,4 km/h (2 Bft)
13.12.2016 12:05 3,9 C 4,9 C 5,3 C 6,2 C 6,2 C 2,3 C 90 % 77 % 61 % 1026,1 hPa 0,0 l/m 2,1 km/h (1 Bft) O-NO 67 0 min 2,4 C 6,2 C 0,0 km/h (0 Bft)
13.12.2016 12:10 3,8 C 4,8 C 5,3 C 6,2 C 6,2 C 2,4 C 90 % 77 % 63 % 1026,1 hPa 0,0 l/m 1,6 km/h (1 Bft) NW 315 0 min 2,3 C 6,2 C 2,4 km/h (1 Bft)
13.12.2016 12:15 3,9 C 4,9 C 5,5 C 6,3 C 6,3 C 2,4 C 90 % 76 % 63 % 1026,1 hPa 0,0 l/m 1,9 km/h (1 Bft) S-SO 157 0 min 2,4 C 6,3 C 3,4 km/h (1 Bft)
13.12.2016 12:20 3,9 C 4,9 C 5,4 C 6,4 C 6,4 C 2,5 C 90 % 76 % 66 % 1025,9 hPa 0,0 l/m 2,6 km/h (1 Bft) S 180 0 min 2,4 C 6,4 C 2,1 km/h (1 Bft)
13.12.2016 12:25 4,0 C 4,9 C 5,5 C 6,4 C 6,4 C 2,4 C 90 % 76 % 63 % 1025,9 hPa 0,0 l/m 3,2 km/h (1 Bft) S-SO 157 0 min 2,5 C 6,4 C 5,6 km/h (1 Bft)
13.12.2016 12:30 4,0 C 4,9 C 5,5 C 6,5 C 6,5 C 2,5 C 90 % 76 % 66 % 1025,9 hPa 0,0 l/m 2,7 km/h (1 Bft) W 270 0 min 2,5 C 6,5 C 4,8 km/h (1 Bft)
13.12.2016 12:35 4,0 C 4,9 C 5,6 C 6,5 C 6,5 C 2,5 C 90 % 76 % 66 % 1025,9 hPa 0,0 l/m 2,3 km/h (1 Bft) W-NW 292 0 min 2,5 C 6,5 C 2,3 km/h (1 Bft)
13.12.2016 12:40 4,0 C 4,9 C 5,6 C 6,5 C 6,5 C 2,5 C 90 % 76 % 66 % 1025,9 hPa 0,0 l/m 2,6 km/h (1 Bft) S 180 0 min 2,5 C 6,5 C 6,6 km/h (2 Bft)
13.12.2016 12:45 4,0 C 4,9 C 5,7 C 6,5 C 6,5 C 2,5 C 90 % 76 % 66 % 1025,9 hPa 0,0 l/m 2,4 km/h (1 Bft) S 180 0 min 2,5 C 6,5 C 2,1 km/h (1 Bft)
13.12.2016 12:50 4,0 C 4,9 C 5,7 C 6,5 C 6,5 C 2,5 C 90 % 76 % 66 % 1025,9 hPa 0,0 l/m 1,8 km/h (1 Bft) SO 135 0 min 2,5 C 6,5 C 1,6 km/h (1 Bft)
13.12.2016 12:55 4,0 C 4,9 C 5,7 C 6,5 C 6,5 C 2,5 C 90 % 76 % 66 % 1025,9 hPa 0,0 l/m 1,9 km/h (1 Bft) S-SO 157 0 min 2,5 C 6,5 C 6,1 km/h (2 Bft)
13.12.2016 13:00 4,0 C 4,9 C 5,6 C 6,5 C 6,5 C 2,5 C 90 % 76 % 66 % 1025,4 hPa 0,0 l/m 2,6 km/h (1 Bft) W-SW 247 0 min 2,5 C 6,5 C 3,9 km/h (1 Bft)
13.12.2016 13:05 4,0 C 4,9 C 5,7 C 6,5 C 6,5 C 2,5 C 90 % 76 % 66 % 1025,4 hPa 0,0 l/m 3,1 km/h (1 Bft) S 180 0 min 2,5 C 6,5 C 6,3 km/h (2 Bft)
13.12.2016 13:10 4,0 C 4,9 C 5,6 C 6,3 C 6,3 C 2,3 C 90 % 75 % 61 % 1025,4 hPa 0,0 l/m 3,7 km/h (1 Bft) S 180 0 min 2,5 C 6,3 C 5,5 km/h (1 Bft)
13.12.2016 13:15 4,0 C 4,9 C 5,6 C 6,1 C 6,1 C 2,1 C 89 % 75 % 55 % 1025,4 hPa 0,0 l/m 4,2 km/h (1 Bft) S 180 0 min 2,4 C 6,1 C 7,1 km/h (2 Bft)
13.12.2016 13:20 4,0 C 4,9 C 5,7 C 6,5 C 6,5 C 2,5 C 89 % 75 % 66 % 1025,8 hPa 0,0 l/m 3,2 km/h (1 Bft) S-SW 202 0 min 2,4 C 6,5 C 5,0 km/h (1 Bft)
13.12.2016 13:25 4,0 C 4,9 C 5,6 C 6,5 C 6,5 C 2,5 C 89 % 75 % 66 % 1025,8 hPa 0,0 l/m 3,2 km/h (1 Bft) NW 315 0 min 2,4 C 6,5 C 6,4 km/h (2 Bft)
13.12.2016 13:30 4,0 C 4,9 C 5,6 C 6,4 C 6,4 C 2,4 C 89 % 75 % 63 % 1025,8 hPa 0,0 l/m 3,4 km/h (1 Bft) SO 135 0 min 2,4 C 6,4 C 3,1 km/h (1 Bft)
13.12.2016 13:35 4,1 C 4,9 C 5,7 C 6,6 C 6,6 C 2,5 C 89 % 75 % 66 % 1025,8 hPa 0,0 l/m 3,2 km/h (1 Bft) S 180 0 min 2,5 C 6,6 C 4,5 km/h (1 Bft)
13.12.2016 13:40 4,1 C 4,9 C 5,7 C 6,6 C 6,6 C 2,5 C 89 % 75 % 66 % 1024,9 hPa 0,0 l/m 2,6 km/h (1 Bft) S-SW 202 0 min 2,5 C 6,6 C 0,0 km/h (0 Bft)
13.12.2016 13:45 4,1 C 4,9 C 5,7 C 6,7 C 6,7 C 2,6 C 89 % 75 % 68 % 1024,9 hPa 0,0 l/m 3,2 km/h (1 Bft) S 180 0 min 2,5 C 6,7 C 11,7 km/h (2 Bft)
13.12.2016 13:50 4,1 C 5,0 C 5,7 C 6,6 C 6,6 C 2,5 C 89 % 75 % 66 % 1024,9 hPa 0,0 l/m 3,2 km/h (1 Bft) S-SW 202 0 min 2,5 C 6,6 C 2,4 km/h (1 Bft)
13.12.2016 13:55 4,1 C 5,0 C 5,6 C 6,4 C 6,4 C 2,3 C 88 % 75 % 61 % 1024,9 hPa 0,0 l/m 3,4 km/h (1 Bft) S 180 0 min 2,3 C 6,4 C 3,7 km/h (1 Bft)
13.12.2016 14:00 4,0 C 5,0 C 5,6 C 6,5 C 6,5 C 2,5 C 88 % 75 % 66 % 1025,0 hPa 0,0 l/m 2,4 km/h (1 Bft) W-SW 247 0 min 2,2 C 6,5 C 6,3 km/h (2 Bft)
13.12.2016 14:05 4,0 C 5,0 C 5,6 C 6,5 C 6,5 C 2,5 C 88 % 75 % 66 % 1025,0 hPa 0,0 l/m 2,1 km/h (1 Bft) SW 225 0 min 2,2 C 6,5 C 5,8 km/h (2 Bft)
13.12.2016 14:10 4,0 C 5,0 C 5,6 C 6,4 C 6,4 C 2,4 C 88 % 75 % 63 % 1025,0 hPa 0,0 l/m 3,2 km/h (1 Bft) SO 135 0 min 2,2 C 6,4 C 3,9 km/h (1 Bft)
13.12.2016 14:15 4,0 C 5,0 C 5,7 C 5,9 C 5,9 C 1,9 C 88 % 75 % 50 % 1025,0 hPa 0,0 l/m 4,2 km/h (1 Bft) S-SW 202 0 min 2,2 C 5,9 C 3,9 km/h (1 Bft)
13.12.2016 14:20 4,0 C 5,0 C 5,7 C 6,4 C 6,4 C 2,4 C 88 % 75 % 63 % 1024,9 hPa 0,0 l/m 2,7 km/h (1 Bft) W-SW 247 0 min 2,2 C 6,4 C 2,1 km/h (1 Bft)
13.12.2016 14:25 4,0 C 5,0 C 5,6 C 6,3 C 6,3 C 2,3 C 88 % 75 % 61 % 1024,9 hPa 0,0 l/m 2,3 km/h (1 Bft) S 180 0 min 2,2 C 6,3 C 6,1 km/h (2 Bft)
13.12.2016 14:30 4,0 C 5,0 C 5,6 C 6,2 C 6,2 C 2,2 C 88 % 74 % 58 % 1024,9 hPa 0,0 l/m 3,1 km/h (1 Bft) S 180 0 min 2,2 C 6,2 C 7,2 km/h (2 Bft)
13.12.2016 14:35 4,0 C 5,0 C 5,5 C 6,2 C 6,2 C 2,2 C 88 % 74 % 58 % 1024,9 hPa 0,0 l/m 3,1 km/h (1 Bft) SW 225 0 min 2,2 C 6,2 C 5,3 km/h (1 Bft)
13.12.2016 14:40 4,0 C 5,0 C 5,5 C 6,1 C 6,1 C 2,1 C 88 % 74 % 55 % 1024,8 hPa 0,0 l/m 2,6 km/h (1 Bft) S-SO 157 0 min 2,2 C 6,1 C 4,8 km/h (1 Bft)
13.12.2016 14:45 4,0 C 5,0 C 5,5 C 6,1 C 6,1 C 2,1 C 88 % 74 % 55 % 1024,8 hPa 0,0 l/m 2,4 km/h (1 Bft) S 180 0 min 2,2 C 6,1 C 3,9 km/h (1 Bft)
13.12.2016 14:50 4,0 C 5,0 C 5,5 C 6,0 C 6,0 C 2,0 C 88 % 75 % 53 % 1024,8 hPa 0,0 l/m 2,7 km/h (1 Bft) O-NO 67 0 min 2,2 C 6,0 C 1,6 km/h (1 Bft)
13.12.2016 14:55 4,0 C 5,0 C 5,5 C 5,9 C 5,9 C 1,9 C 88 % 75 % 50 % 1024,8 hPa 0,0 l/m 2,3 km/h (1 Bft) O-SO 112 0 min 2,2 C 5,9 C 3,5 km/h (1 Bft)
13.12.2016 15:00 4,0 C 5,0 C 5,5 C 5,9 C 5,9 C 1,9 C 88 % 75 % 50 % 1024,8 hPa 0,0 l/m 2,4 km/h (1 Bft) SW 225 0 min 2,2 C 5,9 C 3,7 km/h (1 Bft)
13.12.2016 15:05 4,0 C 5,0 C 5,4 C 5,8 C 5,8 C 1,8 C 88 % 75 % 47 % 1024,8 hPa 0,0 l/m 3,4 km/h (1 Bft) S-SW 202 0 min 2,2 C 5,8 C 4,8 km/h (1 Bft)
13.12.2016 15:10 4,0 C 5,0 C 5,5 C 5,9 C 5,9 C 1,9 C 88 % 75 % 50 % 1024,8 hPa 0,0 l/m 3,1 km/h (1 Bft) SW 225 0 min 2,2 C 5,9 C 1,8 km/h (1 Bft)
13.12.2016 15:15 3,9 C 5,0 C 5,5 C 5,9 C 5,9 C 2,0 C 87 % 75 % 53 % 1024,8 hPa 0,0 l/m 2,9 km/h (1 Bft) S 180 0 min 1,9 C 5,9 C 5,0 km/h (1 Bft)
13.12.2016 15:20 3,9 C 5,0 C 5,5 C 5,9 C 5,9 C 2,0 C 86 % 75 % 53 % 1024,8 hPa 0,0 l/m 2,9 km/h (1 Bft) W-SW 247 0 min 1,8 C 5,9 C 1,6 km/h (1 Bft)
13.12.2016 15:25 3,9 C 5,0 C 5,4 C 5,8 C 5,8 C 1,9 C 86 % 75 % 50 % 1024,8 hPa 0,0 l/m 2,7 km/h (1 Bft) S 180 0 min 1,8 C 5,8 C 3,2 km/h (1 Bft)
13.12.2016 15:30 3,8 C 5,0 C 5,2 C 5,7 C 5,7 C 1,9 C 86 % 75 % 50 % 1024,8 hPa 0,0 l/m 1,9 km/h (1 Bft) N-NW 337 5 min 1,7 C 5,7 C 1,6 km/h (1 Bft)
13.12.2016 15:35 3,9 C 5,0 C 5,3 C 5,6 C 5,6 C 1,7 C 86 % 76 % 45 % 1024,8 hPa 0,0 l/m 1,3 km/h (1 Bft) W-SW 247 5 min 1,8 C 5,6 C 0,0 km/h (0 Bft)
13.12.2016 15:40 3,7 C 5,0 C 5,1 C 5,4 C 5,4 C 1,7 C 86 % 76 % 45 % 1024,5 hPa 0,0 l/m 1,0 km/h (0 Bft) W 270 5 min 1,6 C 5,4 C 2,1 km/h (1 Bft)
13.12.2016 15:45 3,7 C 5,0 C 5,1 C 5,4 C 5,4 C 1,7 C 86 % 76 % 45 % 1024,5 hPa 0,0 l/m 1,8 km/h (1 Bft) O-SO 112 5 min 1,6 C 5,4 C 1,8 km/h (1 Bft)
13.12.2016 15:50 3,7 C 5,0 C 5,1 C 5,4 C 5,4 C 1,7 C 86 % 76 % 0 % 1024,5 hPa 0,0 l/m 2,6 km/h (1 Bft) S 180 0 min 1,6 C 5,4 C 5,1 km/h (1 Bft)
13.12.2016 15:55 3,6 C 5,0 C 4,9 C 5,3 C 5,3 C 1,7 C 86 % 76 % 0 % 1024,5 hPa 0,0 l/m 2,9 km/h (1 Bft) S-SW 202 0 min 1,5 C 5,3 C 4,2 km/h (1 Bft)
13.12.2016 16:00 3,6 C 5,0 C 4,9 C 5,2 C 5,2 C 1,6 C 86 % 76 % 0 % 1024,5 hPa 0,0 l/m 2,6 km/h (1 Bft) O-NO 67 0 min 1,5 C 5,2 C 0,0 km/h (0 Bft)
13.12.2016 16:05 3,6 C 5,0 C 4,8 C 5,2 C 5,2 C 1,6 C 86 % 77 % 0 % 1024,5 hPa 0,0 l/m 1,6 km/h (1 Bft) S 180 0 min 1,5 C 5,2 C 1,8 km/h (1 Bft)
13.12.2016 16:10 3,6 C 5,0 C 4,7 C 5,0 C 5,0 C 1,4 C 86 % 77 % 0 % 1024,5 hPa 0,0 l/m 1,3 km/h (1 Bft) SW 225 0 min 1,5 C 5,0 C 2,6 km/h (1 Bft)
13.12.2016 16:15 3,6 C 5,0 C 4,7 C 5,0 C 5,0 C 1,4 C 86 % 77 % 0 % 1024,5 hPa 0,0 l/m 1,8 km/h (1 Bft) S-SO 157 0 min 1,5 C 5,0 C 0,0 km/h (0 Bft)
13.12.2016 16:20 3,5 C 5,0 C 4,5 C 4,9 C 4,9 C 1,4 C 85 % 77 % 0 % 1024,9 hPa 0,0 l/m 1,6 km/h (1 Bft) S-SO 157 0 min 1,2 C 4,9 C 5,6 km/h (1 Bft)
13.12.2016 16:25 3,5 C 5,0 C 4,6 C 4,8 C 4,8 C 1,3 C 86 % 77 % 0 % 1024,9 hPa 0,0 l/m 1,1 km/h (1 Bft) S-SW 202 0 min 1,4 C 4,8 C 2,6 km/h (1 Bft)
13.12.2016 16:30 3,5 C 5,0 C 4,5 C 4,8 C 4,8 C 1,3 C 86 % 77 % 0 % 1024,9 hPa 0,0 l/m 2,3 km/h (1 Bft) S 180 0 min 1,4 C 4,8 C 4,2 km/h (1 Bft)
13.12.2016 16:35 3,5 C 5,0 C 4,4 C 4,7 C 4,7 C 1,2 C 85 % 77 % 0 % 1024,9 hPa 0,0 l/m 2,4 km/h (1 Bft) S 180 0 min 1,2 C 4,7 C 4,8 km/h (1 Bft)
13.12.2016 16:40 3,5 C 5,0 C 4,4 C 4,7 C 4,7 C 1,2 C 86 % 78 % 0 % 1024,5 hPa 0,0 l/m 1,9 km/h (1 Bft) S-SO 157 0 min 1,4 C 4,7 C 2,3 km/h (1 Bft)
13.12.2016 16:45 3,5 C 5,0 C 4,4 C 4,6 C 4,6 C 1,1 C 85 % 78 % 0 % 1024,5 hPa 0,0 l/m 1,9 km/h (1 Bft) S 180 0 min 1,2 C 4,6 C 0,0 km/h (0 Bft)
13.12.2016 16:50 3,4 C 5,0 C 4,3 C 4,6 C 4,6 C 1,2 C 85 % 78 % 0 % 1024,5 hPa 0,0 l/m 1,6 km/h (1 Bft) SW 225 0 min 1,1 C 4,6 C 0,0 km/h (0 Bft)
13.12.2016 16:55 3,3 C 5,0 C 4,0 C 4,4 C 4,4 C 1,1 C 85 % 78 % 0 % 1024,5 hPa 0,0 l/m 0,6 km/h (0 Bft) W-SW 247 0 min 1,0 C 4,4 C 2,6 km/h (1 Bft)
13.12.2016 17:00 3,2 C 5,0 C 4,0 C 4,2 C 4,2 C 1,0 C 85 % 78 % 0 % 1024,9 hPa 0,0 l/m 0,8 km/h (0 Bft) S 180 0 min 0,9 C 4,2 C 4,8 km/h (1 Bft)
13.12.2016 17:05 3,2 C 5,0 C 4,0 C 4,2 C 4,2 C 1,0 C 85 % 79 % 0 % 1024,9 hPa 0,0 l/m 1,0 km/h (0 Bft) O 90 0 min 0,9 C 4,2 C 0,0 km/h (0 Bft)
13.12.2016 17:10 3,1 C 5,0 C 3,9 C 4,0 C 4,0 C 0,9 C 85 % 79 % 0 % 1024,9 hPa 0,0 l/m 0,6 km/h (0 Bft) S-SO 157 0 min 0,8 C 4,0 C 2,9 km/h (1 Bft)
13.12.2016 17:15 3,1 C 5,0 C 3,9 C 4,0 C 4,0 C 0,9 C 85 % 79 % 0 % 1024,9 hPa 0,0 l/m 0,5 km/h (0 Bft) SO 135 0 min 0,8 C 4,0 C 2,3 km/h (1 Bft)
13.12.2016 17:20 3,1 C 5,0 C 3,9 C 4,0 C 4,0 C 0,9 C 85 % 79 % 0 % 1024,9 hPa 0,0 l/m 1,3 km/h (1 Bft) SO 135 0 min 0,8 C 4,0 C 2,7 km/h (1 Bft)
13.12.2016 17:25 3,0 C 5,0 C 3,9 C 4,0 C 4,0 C 1,0 C 85 % 78 % 0 % 1024,9 hPa 0,0 l/m 2,1 km/h (1 Bft) S 180 0 min 0,7 C 4,0 C 0,0 km/h (0 Bft)
13.12.2016 17:30 3,0 C 5,0 C 3,9 C 4,0 C 4,0 C 1,0 C 86 % 78 % 0 % 1024,9 hPa 0,0 l/m 2,1 km/h (1 Bft) S 180 0 min 0,9 C 4,0 C 2,9 km/h (1 Bft)
13.12.2016 17:35 2,9 C 5,0 C 3,7 C 3,9 C 3,9 C 1,0 C 85 % 78 % 0 % 1024,9 hPa 0,0 l/m 1,3 km/h (1 Bft) S 180 0 min 0,6 C 3,9 C 0,0 km/h (0 Bft)
13.12.2016 17:40 2,8 C 5,0 C 3,6 C 3,8 C 3,8 C 1,0 C 86 % 79 % 0 % 1024,4 hPa 0,0 l/m 1,3 km/h (1 Bft) SO 135 0 min 0,7 C 3,8 C 1,8 km/h (1 Bft)
13.12.2016 17:45 2,8 C 5,0 C 3,6 C 3,7 C 3,7 C 0,9 C 86 % 79 % 0 % 1024,4 hPa 0,0 l/m 1,6 km/h (1 Bft) NW 315 0 min 0,7 C 3,7 C 0,0 km/h (0 Bft)
13.12.2016 17:50 2,9 C 5,0 C 3,5 C 3,5 C 3,5 C 0,6 C 85 % 79 % 0 % 1024,4 hPa 0,0 l/m 1,8 km/h (1 Bft) N 360 0 min 0,6 C 3,5 C 0,0 km/h (0 Bft)
13.12.2016 17:55 2,7 C 5,0 C 3,4 C 3,4 C 3,4 C 0,7 C 85 % 79 % 0 % 1024,4 hPa 0,0 l/m 1,4 km/h (1 Bft) S-SO 157 0 min 0,4 C 3,4 C 4,2 km/h (1 Bft)
13.12.2016 18:00 2,7 C 5,0 C 3,3 C 3,3 C 3,3 C 0,6 C 85 % 79 % 0 % 1024,4 hPa 0,0 l/m 1,6 km/h (1 Bft) SW 225 0 min 0,4 C 3,3 C 1,6 km/h (1 Bft)
13.12.2016 18:05 2,6 C 5,0 C 3,2 C 3,2 C 3,2 C 0,6 C 85 % 79 % 0 % 1024,4 hPa 0,0 l/m 1,6 km/h (1 Bft) S 180 0 min 0,3 C 3,2 C 3,9 km/h (1 Bft)
13.12.2016 18:10 2,7 C 5,0 C 3,2 C 3,0 C 3,0 C 0,3 C 85 % 79 % 0 % 1024,4 hPa 0,0 l/m 1,1 km/h (1 Bft) S-SO 157 0 min 0,4 C 3,0 C 1,8 km/h (1 Bft)
13.12.2016 18:15 2,5 C 5,0 C 3,1 C 2,9 C 2,9 C 0,4 C 85 % 79 % 0 % 1024,4 hPa 0,0 l/m 0,6 km/h (0 Bft) W-NW 292 0 min 0,2 C 2,9 C 0,0 km/h (0 Bft)
13.12.2016 18:20 2,4 C 5,0 C 2,9 C 2,8 C 2,8 C 0,4 C 85 % 79 % 0 % 1024,3 hPa 0,0 l/m 0,5 km/h (0 Bft) NO 45 0 min 0,1 C 2,8 C 0,0 km/h (0 Bft)
13.12.2016 18:25 2,3 C 5,0 C 2,7 C 2,6 C 2,6 C 0,3 C 85 % 80 % 0 % 1024,3 hPa 0,0 l/m 0,5 km/h (0 Bft) SW 225 0 min 0,0 C 2,6 C 0,0 km/h (0 Bft)
13.12.2016 18:30 2,2 C 5,0 C 2,7 C 2,6 C 2,6 C 0,4 C 85 % 80 % 0 % 1024,3 hPa 0,0 l/m 0,8 km/h (0 Bft) S 180 0 min -0,1 C 2,6 C 3,4 km/h (1 Bft)
13.12.2016 18:35 2,2 C 5,0 C 2,7 C 2,7 C 2,7 C 0,5 C 85 % 79 % 0 % 1024,3 hPa 0,0 l/m 0,8 km/h (0 Bft) S-SO 157 0 min -0,1 C 2,7 C 1,6 km/h (1 Bft)
13.12.2016 18:40 2,3 C 5,1 C 2,7 C 2,7 C 2,7 C 0,4 C 86 % 79 % 0 % 1024,4 hPa 0,0 l/m 1,0 km/h (0 Bft) S 180 0 min 0,2 C 2,7 C 0,0 km/h (0 Bft)
13.12.2016 18:45 2,2 C 5,0 C 2,7 C 2,7 C 2,7 C 0,5 C 86 % 78 % 0 % 1024,4 hPa 0,0 l/m 0,3 km/h (0 Bft) SW 225 0 min 0,1 C 2,7 C 2,4 km/h (1 Bft)
13.12.2016 18:50 2,1 C 5,0 C 2,9 C 2,8 C 2,8 C 0,7 C 86 % 79 % 0 % 1024,4 hPa 0,0 l/m 0,8 km/h (0 Bft) W-SW 247 0 min 0,0 C 2,8 C 5,3 km/h (1 Bft)
13.12.2016 18:55 2,2 C 5,0 C 2,9 C 3,1 C 3,1 C 0,9 C 86 % 78 % 0 % 1024,4 hPa 0,0 l/m 1,4 km/h (1 Bft) S-SW 202 0 min 0,1 C 3,1 C 0,0 km/h (0 Bft)
13.12.2016 19:00 2,3 C 5,0 C 2,9 C 3,2 C 3,2 C 0,9 C 86 % 78 % 0 % 1024,1 hPa 0,0 l/m 1,3 km/h (1 Bft) O-SO 112 0 min 0,2 C 3,2 C 0,0 km/h (0 Bft)
13.12.2016 19:05 2,2 C 5,0 C 2,9 C 3,1 C 3,1 C 0,9 C 86 % 78 % 0 % 1024,1 hPa 0,0 l/m 0,5 km/h (0 Bft) N-NO 22 0 min 0,1 C 3,1 C 0,0 km/h (0 Bft)
13.12.2016 19:10 2,1 C 5,0 C 2,7 C 3,0 C 3,0 C 0,9 C 86 % 78 % 0 % 1024,1 hPa 0,0 l/m 0,0 km/h (0 Bft) S 180 0 min 0,0 C 3,0 C 0,0 km/h (0 Bft)
13.12.2016 19:15 2,0 C 5,1 C 2,7 C 2,8 C 2,8 C 0,8 C 86 % 78 % 0 % 1024,1 hPa 0,0 l/m 0,3 km/h (0 Bft) SO 135 0 min -0,1 C 2,8 C 1,8 km/h (1 Bft)
13.12.2016 19:20 2,1 C 5,1 C 2,7 C 2,8 C 2,8 C 0,7 C 86 % 78 % 0 % 1024,1 hPa 0,0 l/m 1,4 km/h (1 Bft) S 180 0 min 0,0 C 2,8 C 4,3 km/h (1 Bft)
13.12.2016 19:25 2,3 C 5,1 C 3,0 C 3,2 C 3,2 C 0,9 C 86 % 77 % 0 % 1024,1 hPa 0,0 l/m 1,9 km/h (1 Bft) S 180 0 min 0,2 C 3,2 C 0,0 km/h (0 Bft)
13.12.2016 19:30 2,3 C 5,0 C 3,2 C 3,3 C 3,3 C 1,0 C 86 % 76 % 0 % 1024,1 hPa 0,0 l/m 2,1 km/h (1 Bft) S-SO 157 0 min 0,2 C 3,3 C 3,5 km/h (1 Bft)
13.12.2016 19:35 2,4 C 5,0 C 3,3 C 3,5 C 3,5 C 1,1 C 86 % 76 % 0 % 1024,1 hPa 0,0 l/m 1,6 km/h (1 Bft) SO 135 0 min 0,3 C 3,5 C 0,0 km/h (0 Bft)
13.12.2016 19:40 2,4 C 5,0 C 3,5 C 3,6 C 3,6 C 1,2 C 86 % 76 % 0 % 1024,4 hPa 0,0 l/m 1,4 km/h (1 Bft) S-SO 157 0 min 0,3 C 3,6 C 0,0 km/h (0 Bft)
13.12.2016 19:45 2,5 C 5,0 C 3,5 C 3,7 C 3,7 C 1,2 C 86 % 76 % 0 % 1024,4 hPa 0,0 l/m 1,4 km/h (1 Bft) SW 225 0 min 0,4 C 3,7 C 1,9 km/h (1 Bft)
13.12.2016 19:50 2,4 C 5,0 C 3,6 C 3,9 C 3,9 C 1,5 C 86 % 76 % 0 % 1024,4 hPa 0,0 l/m 1,3 km/h (1 Bft) S-SW 202 0 min 0,3 C 3,9 C 2,4 km/h (1 Bft)
13.12.2016 19:55 2,5 C 5,0 C 3,7 C 4,0 C 4,0 C 1,5 C 86 % 76 % 0 % 1024,4 hPa 0,0 l/m 1,6 km/h (1 Bft) W-SW 247 0 min 0,4 C 4,0 C 6,1 km/h (2 Bft)
13.12.2016 20:00 2,7 C 5,0 C 3,8 C 4,2 C 4,2 C 1,5 C 86 % 76 % 0 % 1023,9 hPa 0,0 l/m 1,6 km/h (1 Bft) N 360 0 min 0,6 C 4,2 C 0,0 km/h (0 Bft)
13.12.2016 20:05 2,7 C 5,0 C 3,9 C 4,4 C 4,4 C 1,7 C 86 % 76 % 0 % 1023,9 hPa 0,0 l/m 2,3 km/h (1 Bft) SO 135 0 min 0,6 C 4,4 C 0,0 km/h (0 Bft)
13.12.2016 20:10 2,8 C 5,0 C 3,9 C 4,5 C 4,5 C 1,7 C 86 % 76 % 0 % 1023,9 hPa 0,0 l/m 2,1 km/h (1 Bft) O 90 0 min 0,7 C 4,5 C 0,0 km/h (0 Bft)
13.12.2016 20:15 2,8 C 5,0 C 4,0 C 4,6 C 4,6 C 1,8 C 86 % 76 % 0 % 1023,9 hPa 0,0 l/m 1,8 km/h (1 Bft) S 180 0 min 0,7 C 4,6 C 2,1 km/h (1 Bft)
13.12.2016 20:20 2,8 C 5,0 C 4,0 C 4,6 C 4,6 C 1,8 C 86 % 76 % 0 % 1023,9 hPa 0,0 l/m 1,4 km/h (1 Bft) SW 225 0 min 0,7 C 4,6 C 0,0 km/h (0 Bft)
13.12.2016 20:25 2,9 C 5,0 C 4,0 C 4,6 C 4,6 C 1,7 C 86 % 76 % 0 % 1023,9 hPa 0,0 l/m 1,1 km/h (1 Bft) SW 225 0 min 0,8 C 4,6 C 0,0 km/h (0 Bft)
13.12.2016 20:30 2,9 C 5,0 C 3,9 C 4,5 C 4,5 C 1,6 C 86 % 76 % 0 % 1023,9 hPa 0,0 l/m 1,1 km/h (1 Bft) S 180 0 min 0,8 C 4,5 C 3,2 km/h (1 Bft)
13.12.2016 20:35 2,9 C 5,0 C 4,1 C 4,6 C 4,6 C 1,7 C 86 % 76 % 0 % 1023,9 hPa 0,0 l/m 1,0 km/h (0 Bft) O 90 0 min 0,8 C 4,6 C 1,6 km/h (1 Bft)
13.12.2016 20:40 3,1 C 5,0 C 4,0 C 4,6 C 4,6 C 1,5 C 86 % 76 % 0 % 1024,0 hPa 0,0 l/m 1,6 km/h (1 Bft) W 270 0 min 1,0 C 4,6 C 1,6 km/h (1 Bft)
13.12.2016 20:45 3,1 C 5,0 C 4,2 C 4,6 C 4,6 C 1,5 C 86 % 77 % 0 % 1024,0 hPa 0,0 l/m 1,4 km/h (1 Bft) O-SO 112 0 min 1,0 C 4,6 C 0,0 km/h (0 Bft)
13.12.2016 20:50 3,0 C 5,0 C 4,3 C 4,7 C 4,7 C 1,7 C 86 % 77 % 0 % 1024,0 hPa 0,0 l/m 1,3 km/h (1 Bft) SW 225 0 min 0,9 C 4,7 C 3,4 km/h (1 Bft)
13.12.2016 20:55 3,1 C 5,0 C 4,2 C 4,7 C 4,7 C 1,6 C 86 % 77 % 0 % 1024,0 hPa 0,0 l/m 1,6 km/h (1 Bft) W-SW 247 0 min 1,0 C 4,7 C 3,4 km/h (1 Bft)
13.12.2016 21:00 3,1 C 5,0 C 4,3 C 4,7 C 4,7 C 1,6 C 86 % 78 % 0 % 1024,1 hPa 0,0 l/m 1,8 km/h (1 Bft) SW 225 0 min 1,0 C 4,7 C 2,6 km/h (1 Bft)
13.12.2016 21:05 3,2 C 5,0 C 4,3 C 4,8 C 4,8 C 1,6 C 86 % 78 % 0 % 1024,1 hPa 0,0 l/m 1,4 km/h (1 Bft) W-SW 247 0 min 1,1 C 4,8 C 7,4 km/h (2 Bft)
13.12.2016 21:10 3,3 C 5,0 C 4,4 C 4,8 C 4,8 C 1,5 C 86 % 78 % 0 % 1024,1 hPa 0,0 l/m 1,8 km/h (1 Bft) W 270 0 min 1,2 C 4,8 C 0,0 km/h (0 Bft)
13.12.2016 21:15 3,3 C 5,0 C 4,4 C 5,0 C 5,0 C 1,7 C 86 % 79 % 0 % 1024,1 hPa 0,0 l/m 2,3 km/h (1 Bft) S-SW 202 0 min 1,2 C 5,0 C 4,2 km/h (1 Bft)
13.12.2016 21:20 3,3 C 5,0 C 4,5 C 5,1 C 5,1 C 1,8 C 86 % 79 % 0 % 1024,1 hPa 0,0 l/m 2,7 km/h (1 Bft) NO 45 0 min 1,2 C 5,1 C 3,9 km/h (1 Bft)
13.12.2016 21:25 3,4 C 5,0 C 4,7 C 5,2 C 5,2 C 1,8 C 85 % 80 % 0 % 1024,1 hPa 0,0 l/m 2,6 km/h (1 Bft) NO 45 0 min 1,1 C 5,2 C 2,7 km/h (1 Bft)
13.12.2016 21:30 3,5 C 5,0 C 4,7 C 5,3 C 5,3 C 1,8 C 85 % 80 % 0 % 1024,1 hPa 0,0 l/m 2,3 km/h (1 Bft) NW 315 0 min 1,2 C 5,3 C 7,2 km/h (2 Bft)
13.12.2016 21:35 3,6 C 5,0 C 4,7 C 5,3 C 5,3 C 1,7 C 85 % 81 % 0 % 1024,1 hPa 0,0 l/m 2,3 km/h (1 Bft) N-NW 337 0 min 1,3 C 5,3 C 2,9 km/h (1 Bft)
13.12.2016 21:40 3,6 C 5,0 C 4,7 C 5,4 C 5,4 C 1,8 C 85 % 82 % 0 % 1024,0 hPa 0,0 l/m 2,1 km/h (1 Bft) S 180 0 min 1,3 C 5,4 C 2,7 km/h (1 Bft)
13.12.2016 21:45 3,7 C 5,0 C 4,8 C 5,4 C 5,4 C 1,7 C 85 % 82 % 0 % 1024,0 hPa 0,0 l/m 1,8 km/h (1 Bft) W-NW 292 0 min 1,4 C 5,4 C 2,6 km/h (1 Bft)
13.12.2016 21:50 3,7 C 5,0 C 4,8 C 5,4 C 5,4 C 1,7 C 85 % 82 % 0 % 1024,0 hPa 0,0 l/m 1,9 km/h (1 Bft) S 180 0 min 1,4 C 5,4 C 2,4 km/h (1 Bft)
13.12.2016 21:55 3,7 C 5,0 C 4,8 C 5,4 C 5,4 C 1,7 C 85 % 83 % 0 % 1024,0 hPa 0,0 l/m 1,8 km/h (1 Bft) SW 225 0 min 1,4 C 5,4 C 2,6 km/h (1 Bft)
13.12.2016 22:00 3,7 C 5,0 C 4,8 C 5,3 C 5,3 C 1,6 C 85 % 83 % 0 % 1024,3 hPa 0,0 l/m 2,1 km/h (1 Bft) W-SW 247 0 min 1,4 C 5,3 C 3,4 km/h (1 Bft)
13.12.2016 22:05 3,8 C 5,0 C 4,8 C 5,0 C 5,0 C 1,2 C 85 % 83 % 0 % 1024,3 hPa 0,0 l/m 2,7 km/h (1 Bft) W-SW 247 0 min 1,5 C 5,0 C 7,6 km/h (2 Bft)
13.12.2016 22:10 3,9 C 5,0 C 4,8 C 4,8 C 4,8 C 0,9 C 85 % 83 % 0 % 1024,3 hPa 0,0 l/m 2,4 km/h (1 Bft) SW 225 0 min 1,6 C 4,8 C 1,9 km/h (1 Bft)
13.12.2016 22:15 3,8 C 5,0 C 4,7 C 4,7 C 4,7 C 0,9 C 85 % 83 % 0 % 1024,3 hPa 0,0 l/m 2,3 km/h (1 Bft) S 180 0 min 1,5 C 4,7 C 5,6 km/h (1 Bft)
13.12.2016 22:20 3,7 C 5,0 C 4,7 C 4,7 C 4,7 C 1,0 C 85 % 83 % 0 % 1024,3 hPa 0,0 l/m 2,3 km/h (1 Bft) SO 135 0 min 1,4 C 4,7 C 3,4 km/h (1 Bft)
13.12.2016 22:25 3,7 C 5,0 C 4,7 C 4,7 C 4,7 C 1,0 C 85 % 83 % 0 % 1024,3 hPa 0,0 l/m 2,3 km/h (1 Bft) W-SW 247 0 min 1,4 C 4,7 C 4,8 km/h (1 Bft)
13.12.2016 22:30 3,7 C 5,0 C 4,7 C 4,8 C 4,8 C 1,1 C 85 % 83 % 0 % 1024,3 hPa 0,0 l/m 2,3 km/h (1 Bft) W 270 0 min 1,4 C 4,8 C 1,8 km/h (1 Bft)
13.12.2016 22:35 3,7 C 5,0 C 4,7 C 5,0 C 5,0 C 1,3 C 85 % 83 % 0 % 1024,3 hPa 0,0 l/m 2,1 km/h (1 Bft) SO 135 0 min 1,4 C 5,0 C 0,0 km/h (0 Bft)
13.12.2016 22:40 3,7 C 5,0 C 4,6 C 5,0 C 5,0 C 1,3 C 85 % 83 % 0 % 1023,8 hPa 0,0 l/m 1,8 km/h (1 Bft) SW 225 0 min 1,4 C 5,0 C 2,6 km/h (1 Bft)
13.12.2016 22:45 3,6 C 5,0 C 4,7 C 5,0 C 5,0 C 1,4 C 85 % 83 % 0 % 1023,8 hPa 0,0 l/m 2,1 km/h (1 Bft) SW 225 0 min 1,3 C 5,0 C 2,3 km/h (1 Bft)
13.12.2016 22:50 3,6 C 5,0 C 4,7 C 5,0 C 5,0 C 1,4 C 85 % 83 % 0 % 1023,8 hPa 0,0 l/m 2,1 km/h (1 Bft) S 180 0 min 1,3 C 5,0 C 2,9 km/h (1 Bft)
13.12.2016 22:55 3,6 C 5,0 C 4,5 C 4,7 C 4,7 C 1,1 C 85 % 83 % 0 % 1023,8 hPa 0,0 l/m 1,3 km/h (1 Bft) SW 225 0 min 1,3 C 4,7 C 2,1 km/h (1 Bft)
13.12.2016 23:00 3,6 C 5,1 C 4,5 C 4,6 C 4,6 C 1,0 C 85 % 83 % 0 % 1023,9 hPa 0,0 l/m 0,8 km/h (0 Bft) S 180 0 min 1,3 C 4,6 C 0,0 km/h (0 Bft)
13.12.2016 23:05 3,6 C 5,1 C 4,5 C 4,6 C 4,6 C 1,0 C 85 % 83 % 0 % 1023,9 hPa 0,0 l/m 1,0 km/h (0 Bft) S 180 0 min 1,3 C 4,6 C 5,0 km/h (1 Bft)
13.12.2016 23:10 3,5 C 5,1 C 4,5 C 4,5 C 4,5 C 1,0 C 85 % 82 % 0 % 1023,9 hPa 0,0 l/m 1,8 km/h (1 Bft) W-SW 247 0 min 1,2 C 4,5 C 2,3 km/h (1 Bft)
13.12.2016 23:15 3,5 C 5,1 C 4,5 C 4,5 C 4,5 C 1,0 C 85 % 82 % 0 % 1023,9 hPa 0,0 l/m 1,4 km/h (1 Bft) S-SO 157 0 min 1,2 C 4,5 C 3,1 km/h (1 Bft)
13.12.2016 23:20 3,5 C 5,1 C 4,5 C 4,5 C 4,5 C 1,0 C 86 % 82 % 0 % 1023,9 hPa 0,0 l/m 0,8 km/h (0 Bft) W 270 0 min 1,4 C 4,5 C 0,0 km/h (0 Bft)
13.12.2016 23:25 3,4 C 5,1 C 4,5 C 4,5 C 4,5 C 1,1 C 86 % 82 % 0 % 1023,9 hPa 0,0 l/m 1,4 km/h (1 Bft) SO 135 0 min 1,3 C 4,5 C 1,9 km/h (1 Bft)
13.12.2016 23:30 3,5 C 5,1 C 4,5 C 4,5 C 4,5 C 1,0 C 86 % 82 % 0 % 1023,9 hPa 0,0 l/m 1,6 km/h (1 Bft) S-SW 202 0 min 1,4 C 4,5 C 2,7 km/h (1 Bft)
13.12.2016 23:35 3,5 C 5,1 C 4,5 C 4,6 C 4,6 C 1,1 C 86 % 81 % 0 % 1023,9 hPa 0,0 l/m 2,3 km/h (1 Bft) S-SW 202 0 min 1,4 C 4,6 C 0,0 km/h (0 Bft)
13.12.2016 23:40 3,5 C 5,1 C 4,5 C 4,6 C 4,6 C 1,1 C 86 % 81 % 0 % 1024,2 hPa 0,0 l/m 2,3 km/h (1 Bft) SW 225 0 min 1,4 C 4,6 C 1,9 km/h (1 Bft)
13.12.2016 23:45 3,5 C 5,1 C 4,5 C 4,6 C 4,6 C 1,1 C 86 % 81 % 0 % 1024,2 hPa 0,0 l/m 2,1 km/h (1 Bft) S 180 0 min 1,4 C 4,6 C 2,4 km/h (1 Bft)
13.12.2016 23:50 3,5 C 5,1 C 4,6 C 4,6 C 4,6 C 1,1 C 86 % 81 % 0 % 1024,2 hPa 0,0 l/m 2,7 km/h (1 Bft) S-SO 157 0 min 1,4 C 4,6 C 8,0 km/h (2 Bft)
13.12.2016 23:55 3,5 C 5,1 C 4,7 C 4,4 C 4,4 C 0,9 C 86 % 81 % 0 % 1024,2 hPa 0,0 l/m 3,7 km/h (1 Bft) S 180 0 min 1,4 C 4,4 C 4,8 km/h (1 Bft)
_ Min-Zeit 00:05 09:15 00:00 00:10 00:10 07:10 16:20 14:30 00:00 22:40 - 00:05 - - - 00:05 00:10 00:00
Minimum _ -2,0 C 4,7 C -0,3 C -1,4 C -1,4 C 0,1 C 85 % 74 % 0 % 1023,8 hPa - 0,0 km/h (0 Bft) - - - -3,9 C -1,4 C 0,0 km/h (0 Bft)
_ Max-Zeit 13:35 00:00 12:45 13:45 13:45 13:45 09:10 21:55 13:45 00:20 00:00 13:15 - - 08:20 12:25 13:45 13:45
Maximum _ 4,1 C 5,4 C 5,7 C 6,7 C 6,7 C 2,6 C 90 % 83 % 68 % 1027,7 hPa 0,0 l/m 4,2 km/h
S (1 Bft)
- - 5 min 2,5 C 6,7 C 11,7 km/h
S (2 Bft)
Durchschnitt _ 1,8 C 5,0 C 3,0 C 3,1 C 3,1 C 1,3 C 88 % 78 % 17 % 1025,7 hPa #0,0 l/m 1,1 km/h (1 Bft) S - #1:15 h -0,0 C 3,1 C 1,6 km/h (1 Bft)
2016 www.wetterstation-wechselburg.de